Location: Fontevrault
(47.1823°N, 0.0493°E)
Time: 16:55:12
(UTC+00:00)

Cosmos 1459 Rocket - Visible Passes

Search period start: 17 October 2021 00:00
Search period end: 27 October 2021 00:00
Orbit: 936 x 1000 km, 83.0° (Epoch: 16 October)

Date Brightness Start Highest point End Pass type
(mag) Time Alt. Az. Time Alt. Az. Time Alt. Az.
17 Oct 6.6 05:35:32 10° NNE 05:38:46 15° ENE 05:42:00 10° E visible
17 Oct 5.9 19:16:10 13° NE 19:16:10 13° NE 19:16:57 10° NNE visible
17 Oct 5.7 21:00:39 24° N 21:00:39 24° N 21:02:57 10° N visible
18 Oct 5.6 19:38:57 19° NNE 19:38:57 19° NNE 19:40:43 10° NNE visible
18 Oct 5.9 21:23:26 22° NNW 21:23:26 22° NNW 21:25:55 10° N visible
19 Oct 5.3 20:01:39 26° NNE 20:01:39 26° NNE 20:04:12 10° NNE visible
19 Oct 6.2 21:46:08 18° NW 21:46:08 18° NW 21:48:36 10° NNW visible
20 Oct 6.9 05:01:09 10° NE 05:02:55 11° ENE 05:04:39 10° ENE visible
20 Oct 5.7 18:39:47 14° NE 18:39:47 14° NE 18:40:56 10° NE visible
20 Oct 5.2 20:24:15 33° N 20:24:15 33° N 20:27:27 10° N visible
20 Oct 6.6 22:08:43 13° NW 22:08:43 13° NW 22:10:40 10° NNW visible
21 Oct 6.5 05:22:36 10° NNE 05:26:45 19° ENE 05:30:52 10° ESE visible
21 Oct 5.2 19:02:14 23° NE 19:02:14 23° NE 19:04:57 10° NNE visible
21 Oct 5.3 20:46:41 34° NNW 20:46:41 34° NNW 20:50:32 10° N visible
22 Oct 6.0 05:45:08 10° N 05:50:24 30° ENE 05:55:39 10° SE visible
22 Oct 4.5 19:24:22 41° NE 19:24:22 41° NE 19:28:33 10° NNE visible
22 Oct 5.7 21:08:46 27° WNW 21:08:46 27° WNW 21:13:22 10° N visible
23 Oct 5.4 18:01:11 15° E 18:01:28 15° ENE 18:04:40 10° NE visible
23 Oct 3.8 19:39:32 10° S 19:45:46 87° E 19:51:55 10° N visible
23 Oct 6.3 21:29:38 15° W 21:31:51 17° WNW 21:35:48 10° NNW visible
24 Oct 6.7 04:47:40 10° NNE 04:50:56 15° ENE 04:54:11 10° E visible
24 Oct 4.8 18:19:23 10° SE 18:24:16 25° E 18:29:05 10° NNE visible
24 Oct 4.4 20:02:57 10° SSW 20:09:02 58° WNW 20:15:05 10° N visible
24 Oct 6.8 21:54:48 10° WNW 21:55:42 10° NW 21:56:37 10° NW visible
25 Oct 6.3 05:09:53 10° NNE 05:14:40 24° ENE 05:19:27 10° ESE visible
25 Oct 4.2 18:41:28 10° SSE 18:47:11 41° E 18:52:52 10° NNE visible
25 Oct 5.3 20:26:52 10° SW 20:32:28 35° WNW 20:38:02 10° N visible
26 Oct 5.5 05:32:36 10° N 05:38:14 38° ENE 05:43:51 10° SE visible
26 Oct 5.6 17:24:48 10° E 17:26:13 11° ENE 17:27:37 10° ENE visible
26 Oct 3.8 19:04:08 10° S 19:10:15 69° E 19:16:20 10° NNE visible
26 Oct 6.0 20:51:24 10° WSW 20:56:04 22° WNW 21:00:43 10° NNW visible
